{"data":{"norad_id":66135,"epoch":"2026-05-25T03:22:26.587200Z","epoch_age_seconds":63644,"freshness":"FRESH","line1":"1 66135U 25237X   26145.14058550  .00022267  00000+0  76150-3 0  9996","line2":"2 66135  53.1582  44.6453 0001125  85.9818 274.1311 15.30207115 34271","mean_motion":15.30207115,"eccentricity":0.0001125,"inclination_deg":53.1582,"raan_deg":44.6453,"arg_perigee_deg":85.9818,"mean_anomaly_deg":274.1311,"bstar":0.0007615,"rev_number":3427,"period_min":94.104908145065,"perigee_km":474.42282567627,"apogee_km":475.96482511198,"semimajor_km":6853.3308253941,"source":"CELESTRAK","updated_at":"2026-05-25T13:38:21.066490Z"}}